This is the latest recevied weather packets stored in our database for station/object MB7UUE. If no packets are shown the sender has not sent any weather packets the latest 10 day(s).
| Time | Temp. | Humidity | Pressure | Rain* | Wind** | Luminosity | Snow |
|---|---|---|---|---|---|---|---|
| 1788078927 | 19.44° C | 74% | 1009.7 hPa | 0 mm | - | - | - |
| 1788077787 | 18.89° C | 74% | 1009.6 hPa | 0 mm | - | - | - |
| 1788076646 | 19.44° C | 75% | 1009.5 hPa | 0 mm | - | - | - |
| 1788075508 | 18.89° C | 76% | 1009.4 hPa | 0 mm | - | - | - |
| 1788074368 | 18.33° C | 78% | 1009.2 hPa | 0 mm | - | - | - |
| 1788073228 | 17.78° C | 80% | 1009.1 hPa | 0 mm | - | - | - |
| 1788072087 | 17.22° C | 81% | 1008.8 hPa | 0 mm | - | - | - |
| 1788070947 | 17.22° C | 81% | 1008.7 hPa | 0 mm | - | - | - |
| 1788069901 | 17.22° C | 80% | 1008.6 hPa | 0 mm | - | - | - |
| 1788068760 | 17.22° C | 80% | 1008.5 hPa | 0 mm | - | - | - |
| 1788067621 | 17.22° C | 79% | 1008.2 hPa | 0 mm | - | - | - |
| 1788066480 | 17.22° C | 79% | 1008.1 hPa | 0 mm | - | - | - |
| 1788065341 | 17.22° C | 79% | 1007.8 hPa | 0 mm | - | - | - |
| 1788064200 | 17.78° C | 79% | 1007.6 hPa | 0 mm | - | - | - |
| 1788063060 | 17.78° C | 78% | 1007.5 hPa | 0 mm | - | - | - |
| 1788061919 | 17.78° C | 76% | 1007.2 hPa | 0 mm | - | - | - |
| 1788060779 | 18.33° C | 74% | 1007.1 hPa | 0 mm | - | - | - |
| 1788060779 | 18.33° C | 74% | 1007.1 hPa | 0 mm | - | - | - |
| 1788059640 | 18.33° C | 73% | 1006.8 hPa | 0 mm | - | - | - |
| 1788058501 | 18.33° C | 73% | 1006.6 hPa | 0 mm | - | - | - |
| 1788057359 | 18.33° C | 73% | 1006.4 hPa | 0 mm | - | - | - |
| 1788057359 | 18.33° C | 73% | 1006.4 hPa | 0 mm | - | - | - |
| 1788056220 | 18.33° C | 75% | 1006.1 hPa | 0 mm | - | - | - |
| 1788055081 | 18.33° C | 76% | 1005.9 hPa | 0 mm | - | - | - |
| 1788053940 | 18.33° C | 77% | 1005.6 hPa | 0 mm | - | - | - |
* Rain latest hour (hover to see other rain measurements)
** Current wind speed in m/s (hover to see current wind gust speed)